Location: LDNL
(36.4545°S, 141.6685°E)
Time: 12:09:12
(UTC+10:00)

Tiros 1 despin weight - Pass Details

Date: 09 August 2022
Orbit: 590 x 639 km, 48.2° (Epoch: 23 September)

Event Time Altitude Azimuth Distance (km) Brightness Sun altitude
Rises 00:21:40 0° 336° (NNW) 2,882 - -69.2°
Reaches altitude 10° 00:24:11 10° 347° (NNW) 1,992 - -69.3°
Maximum altitude 00:28:07 28° 46° (NE) 1,184 - -69.4°
Drops below altitude 10° 00:32:07 10° 105° (ESE) 2,034 - -69.5°
Sets 00:34:43 0° 116° (ESE) 2,954 - -69.5°
